• Join FlightAware (Why Join?)
  • Login
  • US Flag 
01:15PM EDT


 

Airport Tracker/Info


-or-


 

Live Flight TrackerFlight Track Log ✈ JBU729 ✈ 21-Apr-2013 ✈ KMCO - TJBQ / BQN

Flight Track Log - Related Links

Times and Time Zones

All times are in EDT time to prevent confusion due to time zone crossing. See the JBU729 flight status page for this flight to view local times or setup timezone preferences in your user account.

Time Position Orientation Groundspeed Altitude Reporting Facility
EDT Latitude Longitude Course Direction KTS MPH feet Rate Location/Type
11:47PM 28.4400 -81.3220 360° North 161 185 200  Level FlightAware
11:48PM 28.4570 -81.3150 20° North 143 165 1,400 1,920 Climbing FlightAware
11:48PM 28.4720 -81.2950 50° Northeast 177 204 2,000 1,080 Climbing FlightAware
11:48PM 28.4850 -81.2740 55° Northeast 215 247 2,400 1,740 Climbing FlightAware
11:49PM 28.5000 -81.2420 62° Northeast 229 264 3,600 2,640 Climbing FlightAware
11:49PM 28.5020 -81.2180 85° East 232 267 4,600 2,700 Climbing FlightAware
11:50PM 28.4990 -81.1950 98° East 232 267 5,400 2,520 Climbing FlightAware
11:50PM 28.4870 -81.1810 134° Southeast 234 269 6,100 2,100 Climbing FlightAware
11:50PM 28.4570 -81.1570 145° Southeast 276 318 7,000 2,280 Climbing FlightAware
11:51PM 28.4340 -81.1330 137° Southeast 282 325 8,200 2,700 Climbing FlightAware
11:51PM 28.4070 -81.0990 132° Southeast 292 336 9,500 2,100 Climbing FlightAware
11:52PM 28.3680 -81.0510 133° Southeast 328 377 10,700 2,280 Climbing FlightAware
11:53PM 28.3230 -80.9890 129° Southeast 336 387 12,800 2,520 Climbing FlightAware
11:53PM 28.2870 -80.9310 125° Southeast 342 394 14,300 2,160 Climbing FlightAware
11:54PM 28.2440 -80.8620 125° Southeast 362 417 15,900 2,040 Climbing FlightAware
11:55PM 28.2050 -80.8000 126° Southeast 369 425 17,200 1,860 Climbing FlightAware
11:55PM 28.1650 -80.7350 125° Southeast 384 442 18,400 1,800 Climbing FlightAware
11:56PM 28.1170 -80.6590 126° Southeast 393 452 19,800 1,740 Climbing FlightAware
11:57PM 28.0740 -80.5910 126° Southeast 400 460 20,900 1,440 Climbing FlightAware
11:58PM 28.0230 -80.5110 126° Southeast 420 483 21,900 1,380 Climbing FlightAware
11:58PM 27.9790 -80.4410 125° Southeast 420 483 22,900 1,560 Climbing FlightAware
11:59PM 27.9350 -80.3640 123° Southeast 426 490 24,000 1,620 Climbing FlightAware
12:00AM 27.9060 -80.2710 109° East 427 491 25,200 1,440 Climbing FlightAware
12:00AM 27.8810 -80.1860 108° East 435 501 26,100 1,320 Climbing FlightAware
12:01AM 27.8560 -80.0990 108° East 438 504 27,000 1,200 Climbing FlightAware
12:02AM 27.8280 -80.0000 108° East 443 510 27,800 1,020 Climbing FlightAware
12:02AM 27.8020 -79.9090 108° East 451 519 28,500 1,020 Climbing FlightAware
12:03AM 27.7730 -79.8080 108° East 456 525 29,300 1,020 Climbing FlightAware
12:04AM 27.7470 -79.7210 109° East 459 528 30,000 840 Climbing FlightAware
12:05AM 27.7240 -79.6120 103° East 474 545 30,500 720 Climbing FlightAware
12:05AM 27.7120 -79.5140 98° East 475 547 31,100 780 Climbing FlightAware
12:06AM 27.7000 -79.4140 98° East 480 552 31,600 1,020 Climbing FlightAware
12:07AM 27.6850 -79.3030 99° East 476 548 32,600 900 Climbing FlightAware
12:07AM 27.6730 -79.2030 98° East 486 559 32,900 480 Climbing FlightAware
12:08AM 27.6540 -79.1040 102° East 491 565 33,300 600 Climbing FlightAware
12:09AM 27.6210 -79.0000 110° East 493 567 33,800 840 Climbing FlightAware
12:09AM 27.5830 -78.9030 114° Southeast 481 554 34,500 1,020 Climbing FlightAware
12:10AM 27.5280 -78.8110 124° Southeast 462 532 35,300 840 Climbing FlightAware
12:11AM 27.4720 -78.7360 130° Southeast 472 543 35,700 300 Climbing FlightAware
12:12AM 27.4110 -78.6500 129° Southeast 475 547 35,800 360 Climbing FlightAware
12:12AM 27.3690 -78.5920 129° Southeast 473 544 36,200 900 Climbing FlightAware
12:13AM 27.3040 -78.4960 127° Southeast 468 539 37,000 540 Climbing FlightAware
12:14AM 27.2590 -78.4300 127° Southeast 478 550 37,000  Level FlightAware
12:14AM 27.1880 -78.3270 128° Southeast 482 555 37,000  Level FlightAware
12:15AM 27.1450 -78.2640 127° Southeast 479 551 37,000  Level FlightAware
12:16AM 27.0910 -78.1850 128° Southeast 478 550 37,000  Level FlightAware
12:16AM 27.0240 -78.0870 127° Southeast 479 551 37,000  Level FlightAware
12:17AM 26.9570 -77.9920 128° Southeast 482 555 37,000  Level FlightAware
12:18AM 26.9190 -77.9350 127° Southeast 477 549 37,000 -60 Level FlightAware
12:19AM 26.7790 -77.7330 128° Southeast 479 551 36,900  Descending FlightAware
12:20AM 26.7000 -77.6180 128° Southeast 479 551 37,000 60 Climbing FlightAware
12:21AM 26.6550 -77.5500 127° Southeast 479 551 37,000  Level FlightAware
12:22AM 26.6110 -77.4820 126° Southeast 479 551 37,000  Level FlightAware
12:22AM 26.5670 -77.4140 126° Southeast 479 551 37,000  Level FlightAware
12:23AM 26.5220 -77.3460 126° Southeast 479 551 37,000  Level FlightAware
12:24AM 26.4670 -77.2600 126° Southeast 479 551 37,000  Level FlightAware
12:25AM 26.4230 -77.1920 126° Southeast 479 551 37,000  Level FlightAware
12:25AM 26.3780 -77.1240 126° Southeast 479 551 37,000  Level FlightAware
12:26AM 26.3340 -77.0560 126° Southeast 479 551 37,000  Level FlightAware
12:27AM 26.2790 -76.9710 126° Southeast 479 551 37,000  Level FlightAware
12:27AM 26.2340 -76.9030 126° Southeast 479 551 37,000  Level FlightAware
12:28AM 26.1900 -76.8350 126° Southeast 479 551 37,000  Level FlightAware
12:29AM 26.1460 -76.7670 126° Southeast 479 551 37,000  Level FlightAware
12:29AM 26.1020 -76.7000 126° Southeast 479 551 37,000 -120 Level FlightAware
12:30AM 25.8789 -76.4639 126° Southeast 493 567 36,900 -60 Descending Miami Center
12:31AM 25.7950 -76.3442 128° Southeast 493 567 36,900  Level Miami Center
12:32AM 25.7067 -76.2244 129° Southeast 493 567 37,000  Climbing Miami Center
12:33AM 25.6228 -76.1050 128° Southeast 493 567 37,000  Level Miami Center
12:34AM 25.5300 -75.9836 130° Southeast 499 574 37,000  Level Miami Center
12:35AM 25.4478 -75.8667 128° Southeast 493 567 37,000  Level Miami Center
12:36AM 25.3592 -75.7481 130° Southeast 498 573 37,000  Level Miami Center
12:37AM 25.2725 -75.6269 128° Southeast 498 573 37,000  Level Miami Center
12:38AM 25.1772 -75.4994 130° Southeast 498 573 37,000  Level Miami Center
12:39AM 25.0906 -75.3786 128° Southeast 498 573 37,000  Level Miami Center
12:40AM 25.0014 -75.2606 130° Southeast 498 573 37,000  Level Miami Center
12:41AM 24.9144 -75.1403 129° Southeast 498 573 37,000  Level Miami Center
12:42AM 24.8253 -75.0200 129° Southeast 498 573 37,000  Level Miami Center
12:43AM 24.7358 -74.9003 129° Southeast 499 574 37,000  Level Miami Center
12:44AM 24.6486 -74.7806 129° Southeast 499 574 37,000  Level Miami Center
12:45AM 24.5614 -74.6678 130° Southeast 494 568 37,000  Level Miami Center
12:46AM 24.4717 -74.5436 128° Southeast 500 575 37,000  Level Miami Center
12:47AM 24.3842 -74.4267 129° Southeast 500 575 37,000  Level Miami Center
12:48AM 24.2900 -74.3056 130° Southeast 500 575 37,000  Level Miami Center
12:49AM 24.2044 -74.1889 129° Southeast 500 575 37,000  Level Miami Center
12:50AM 24.1167 -74.0722 129° Southeast 500 575 37,000  Level Miami Center
12:51AM 24.0225 -73.9492 130° Southeast 500 575 37,000  Level Miami Center
12:52AM 23.9364 -73.8331 129° Southeast 500 575 37,000  Level Miami Center
12:53AM 23.8569 -73.7283 130° Southeast 500 575 37,000  Level Miami Center
12:54AM 23.7625 -73.6103 131° Southeast 500 575 37,000  Level Miami Center
12:55AM 23.6744 -73.4922 129° Southeast 500 575 37,000  Level Miami Center
12:56AM 23.5858 -73.3747 129° Southeast 500 575 37,000  Level Miami Center
12:57AM 23.4914 -73.2572 131° Southeast 500 575 37,000  Level Miami Center
12:58AM 23.3986 -73.1375 130° Southeast 505 581 37,000  Level Miami Center
12:59AM 23.3100 -73.0225 130° Southeast 505 581 37,000  Level Miami Center
01:00AM 23.2192 -72.9033 130° Southeast 510 587 37,000  Level Miami Center
01:01AM 23.1283 -72.7864 130° Southeast 510 587 37,000  Level Miami Center
01:02AM 23.0375 -72.6675 130° Southeast 515 593 37,000  Level Miami Center
01:03AM 22.9417 -72.5353 128° Southeast 510 587 37,000  Level Miami Center
01:04AM 22.8506 -72.4189 130° Southeast 510 587 37,000  Level Miami Center
01:05AM 22.7575 -72.3050 132° Southeast 510 587 37,000  Level Miami Center
01:06AM 22.6661 -72.1869 130° Southeast 510 587 37,000  Level Miami Center
01:07AM 22.5750 -72.0711 130° Southeast 510 587 37,000  Level Miami Center
01:08AM 22.4878 -71.9575 130° Southeast 510 587 37,000 -60 Level Miami Center
01:09AM 22.3986 -71.8442 130° Southeast 505 581 36,900  Descending Miami Center
01:10AM 22.3069 -71.7286 131° Southeast 505 581 37,000  Climbing Miami Center
01:11AM 22.2153 -71.6111 130° Southeast 505 581 37,000  Level Miami Center
01:12AM 22.1236 -71.4961 131° Southeast 505 581 37,000 -60 Level Miami Center
01:13AM 22.0361 -71.3833 130° Southeast 505 581 36,900  Descending Miami Center
01:14AM 21.9422 -71.2664 131° Southeast 510 587 37,000  Climbing Miami Center
01:15AM 21.8503 -71.1497 130° Southeast 510 587 37,000  Level Miami Center
01:16AM 21.7672 -71.0461 131° Southeast 510 587 37,000 -60 Level Miami Center
01:17AM 21.6728 -70.9275 131° Southeast 515 593 36,900 -540 Descending Miami Center
01:18AM 21.5786 -70.8114 131° Southeast 515 593 36,000 -1,020 Descending Miami Center
01:19AM 21.4844 -70.6975 132° Southeast 520 598 35,000 -540 Descending Miami Center
01:20AM 21.3900 -70.5817 131° Southeast 520 598 35,000  Level Miami Center
01:21AM 21.2933 -70.4636 131° Southeast 520 598 35,000  Level Miami Center
01:22AM 21.1992 -70.3525 132° Southeast 520 598 35,000 -60 Level Miami Center
01:23AM 21.1044 -70.2350 131° Southeast 520 598 34,900  Descending Miami Center
01:24AM 21.0078 -70.1175 131° Southeast 520 598 35,000  Climbing Miami Center
01:25AM 20.9150 -70.0025 131° Southeast 520 598 35,000  Level Miami Center
01:26AM 20.8203 -69.8875 131° Southeast 520 598 35,000  Level Miami Center
01:27AM 20.7258 -69.7772 132° Southeast 515 593 35,000  Level Miami Center
01:28AM 20.6353 -69.6647 131° Southeast 515 593 35,000  Level Miami Center
01:29AM 20.5444 -69.5522 131° Southeast 515 593 35,000 -60 Level Miami Center
01:30AM 20.4497 -69.4400 132° Southeast 515 593 34,900  Descending Miami Center
01:31AM 20.3569 -69.3303 132° Southeast 510 587 35,000  Climbing Miami Center
01:32AM 20.2619 -69.2186 132° Southeast 510 587 35,000  Level Miami Center
01:33AM 20.1731 -69.1067 130° Southeast 510 587 35,000  Level Miami Center
01:34AM 20.0714 -68.9867 132° Southeast 505 581 35,000  Level Miami Center
01:35AM 19.9783 -68.8775 132° Southeast 500 575 35,000  Level Miami Center
01:36AM 19.8856 -68.7683 132° Southeast 495 570 35,000 -60 Level Miami Center
01:37AM 19.7964 -68.6569 130° Southeast 495 570 34,900 -2,040 Descending Miami Center
01:38AM 19.7053 -68.5461 131° Southeast 495 570 31,100 -3,120 Descending Miami Center
01:39AM 19.6000 -68.4167 131° Southeast 510 587 28,500 -2,220 Descending San Juan Center
01:40AM 19.5167 -68.3000 127° Southeast 480 552 26,500 -2,100 Descending San Juan Center
01:41AM 19.4167 -68.2000 137° Southeast 460 529 24,400 -1,800 Descending San Juan Center
01:42AM 19.3333 -68.1167 137° Southeast 430 495 22,900 -1,920 Descending San Juan Center
01:43AM 19.2500 -68.0333 137° Southeast 430 495 20,600 -2,700 Descending San Juan Center
01:44AM 19.1500 -67.9500 142° Southeast 440 506 17,600 -2,880 Descending San Juan Center
01:45AM 19.0500 -67.8667 142° Southeast 440 506 14,900 -2,880 Descending San Juan Center
01:46AM 18.9667 -67.7833 137° Southeast 420 483 11,800 -2,160 Descending San Juan Center
01:47AM 18.8833 -67.7167 143° Southeast 370 426 10,600 -1,200 Descending San Juan Center
01:48AM 18.8167 -67.6500 137° Southeast 310 357 9,400 -1,260 Descending San Juan Center
01:49AM 18.7500 -67.6000 145° Southeast 290 334 8,100 -1,200 Descending San Juan Center
01:50AM 18.7000 -67.5500 137° Southeast 280 322 7,000 -720 Descending San Juan Center
01:51AM 18.6333 -67.5000 145° Southeast 260 299 6,700 -1,140 Descending San Juan Center
01:52AM 18.6000 -67.4500 125° Southeast 230 265 4,800 -1,800 Descending San Juan Center
01:53AM 18.5333 -67.4000 145° Southeast 240 276 3,100 -1,200 Descending San Juan Center
01:54AM 18.5000 -67.3667 137° Southeast 210 242 2,500 -300 Descending San Juan Center
01:55AM 18.4500 -67.3333 148° Southeast 190 219 2,500 -60 Level San Juan Center
01:56AM 18.4333 -67.3000 118° Southeast 180 207 2,400 -300 Descending San Juan Center
01:57AM 18.4500 -67.2500 71° East 180 207 1,900 -360 Descending San Juan Center
01:58AM 18.4500 -67.2167 90° East 120 138 1,700 -480 Descending San Juan Center
01:59AM 18.4667 -67.1667 71° East 120 138 1,000 -720 Descending San Juan Center